Simultaneous Nadir Overpasses (SNOs) Predictions

Prediction of SNOs near equator between AQUA and NPP Satellite Orbit:

Table of predicted SNOs near equator for the next 14.0 days since TLE Epoch: 8/10/2019
Index Date (AQUA) Time (AQUA) AQUA Lat,Lon Date (NPP) Time (NPP) NPP Lat,Lon Distance(km) Time Diff (sec)
1 08/10/2019 07:52:26 -5.20, -94.98 08/10/2019 07:42:43 -5.16, -95.17 20.93 583
2 08/10/2019 08:40:40 0.58, 73.62 08/10/2019 08:32:13 0.49, 73.17 51.05 507
3 08/10/2019 09:28:48 3.93,-117.76 08/10/2019 09:21:36 4.06,-118.48 80.48 432
4 08/13/2019 00:08:29 -3.66, 21.22 08/12/2019 23:59:12 -3.60, 20.95 30.87 557
5 08/13/2019 00:56:43 -0.96,-170.17 08/13/2019 00:48:42 -1.07,-170.71 60.96 481
6 08/13/2019 01:44:51 5.47, -1.56 08/13/2019 01:38:05 5.62, -2.35 90.15 406
7 08/15/2019 15:39:10 16.72, -33.40 08/15/2019 15:29:10 16.76, -33.63 25.04 600
8 08/15/2019 16:24:30 -2.07, 137.44 08/15/2019 16:15:39 -1.98, 137.09 40.81 531
9 08/15/2019 17:12:44 -2.55, -53.95 08/15/2019 17:05:09 -2.69, -54.57 70.77 455
10 08/15/2019 18:00:52 7.06, 114.67 08/15/2019 17:54:32 7.24, 113.78 99.64 380
11 08/18/2019 07:52:24 4.99, 85.05 08/18/2019 07:42:44 4.92, 84.87 21.25 580
12 08/18/2019 08:40:32 -0.49,-106.34 08/18/2019 08:32:07 -0.37,-106.78 50.79 505
13 08/18/2019 09:28:46 -4.14, 62.27 08/18/2019 09:21:37 -4.30, 61.56 80.52 429
14 08/21/2019 00:08:25 3.35,-158.72 08/20/2019 23:59:12 3.31,-159.00 31.00 553
15 08/21/2019 00:56:33 1.16, 9.89 08/21/2019 00:48:35 1.25, 9.35 60.70 478
16 08/21/2019 01:44:48 -5.72, 178.49 08/21/2019 01:38:05 -5.92, 177.70 90.20 403
17 08/23/2019 15:37:23 -10.62, 147.98 08/23/2019 15:27:23 -10.65, 147.82 17.43 600
18 08/23/2019 16:24:27 1.77, -42.50 08/23/2019 16:15:40 1.70, -42.86 40.88 527
19 08/23/2019 17:12:36 2.68, 126.10 08/23/2019 17:05:04 2.80, 125.47 70.60 452
20 08/23/2019 18:00:50 -7.30, -65.29 08/23/2019 17:54:34 -7.47, -66.18 99.77 376




NCC Satellite Simultaneous Nadir Overpasses (SNOs) Prediction Service
